[[{"header":{"parameterUnit":"m.s-1","parameterCategory":1,"la1":30.2991,"la2":30.254,"lo1":-89.0895,"lo2":-89.0444,"dy":0.0017,"dx":0.0017,"nx":28,"ny":28,"refTime":"2025-07-14T09:00:00:Z","depth":0,"parameterNumber":2,"parameterNumberName":"U-component_of_WINDS"},"data":[0,0,0,0,0,0,0,0,0,0,0,0,0,0,0,0,0,0,0,0,0,0,0,0,0,0,0,0,0,0,0,0,0,0,0,0,0,0,0,0,0,0,0,0,0,0,0,0,0,0,0,0,0,0,0,0,0,0,1.6928,1.6927,0,1.6871,1.687,1.6869,1.6716,1.6712,1.6709,1.6706,1.6652,1.6654,1.6656,0,0,0,0,0,0,0,0,0,0,0,0,0,1.6908,1.6909,1.6928,1.6927,1.6926,1.6871,1.687,1.6869,1.6716,1.6712,1.6708,1.6704,1.6652,1.6654,1.6656,0,0,0,0,0,0,0,0,0,0,0,0,0,1.6891,1.691,1.6928,1.6843,1.6835,1.6871,1.687,1.6869,1.6717,1.6712,1.6707,1.6702,1.6651,1.6654,1.6656,1.6771,0,0,1.6664,1.6665,0,0,0,0,0,0,0,0,1.6892,1.6892,1.6856,1.6849,1.684,1.6795,1.6843,1.6836,1.6718,1.6762,1.6706,1.67,1.6704,1.6702,1.6702,1.6769,1.6766,1.6664,1.6666,1.6667,1.6667,0,0,0,0,0,0,0,1.6893,1.6893,1.6905,1.6856,1.6846,1.6809,1.6801,1.6841,1.6762,1.6758,1.6746,1.6741,1.6699,1.67,1.67,1.6766,1.6664,1.6666,1.6668,1.6669,1.6924,1.6929,0,0,0,0,0,0,1.6906,1.6895,1.6907,1.6903,1.6854,1.6814,1.6805,1.6815,1.6761,1.6748,1.6746,1.6735,1.6699,1.6697,1.6698,1.6829,1.6667,1.6669,1.667,1.6919,1.6925,1.6931,0,0,0,0,0,0,1.6906,1.6909,1.6909,1.6896,1.6893,1.6819,1.6832,1.6816,1.6817,1.6752,1.6737,1.6762,1.6695,1.6694,1.6754,1.6825,1.667,1.6672,1.6912,1.6921,1.6928,1.7093,0,0,0,0,0,0,1.6906,1.691,1.6952,1.6898,1.6895,1.6966,1.6836,1.6818,1.6821,1.6806,1.6763,1.6751,1.6691,1.6751,1.6756,1.6826,1.6674,1.6906,1.6916,1.6925,1.7081,1.7106,1.7127,0,0,0,0,0,1.6906,1.7002,1.6955,1.6957,1.6946,1.697,1.6968,1.6895,1.6828,1.687,1.6828,1.6752,1.6816,1.6758,1.6763,1.6834,1.6901,1.6913,1.6925,1.7071,1.7101,1.7126,0,0,0,0,0,0,1.7067,1.6993,1.694,1.7021,1.7003,1.6944,1.6995,1.6929,1.6931,1.6917,1.6828,1.682,1.6892,1.6869,1.6806,1.6943,1.6846,1.686,1.6956,1.6984,1.7006,1.7011,1.6676,0,0,0,0,0,1.7112,1.7136,1.7071,1.7148,1.7141,1.707,1.7078,1.7023,1.7002,1.6994,1.6956,1.694,1.6955,1.6968,1.6979,1.7077,1.7066,1.7128,1.7151,1.717,1.7183,1.7233,1.7261,1.697,1.697,1.6969,0,0,1.7205,1.7167,1.7188,1.7179,1.7159,1.7188,1.7065,1.7101,1.7122,1.7,1.7053,1.7026,1.7001,1.708,1.7113,1.7063,1.7261,1.7185,1.7201,1.7203,1.7248,1.7276,1.7301,1.6978,1.6976,1.6975,0,0,1.7388,1.7362,1.7423,1.7405,1.7375,1.7327,1.7342,1.7293,1.7269,1.7321,1.7231,1.7255,1.7285,1.7271,1.7268,1.7447,1.7378,1.7453,1.7573,1.7623,1.7646,1.7666,1.7731,1.7755,1.7466,1.7466,1.7467,0,1.7508,1.7546,1.7464,1.7505,1.7505,1.7394,1.7456,1.7443,1.7419,1.7422,1.7366,1.74,1.7376,1.7451,1.7494,1.7495,1.7511,1.7458,1.7649,1.7668,1.7686,1.7746,1.7771,1.7476,1.7475,1.7474,1.7473,0,1.7695,1.7723,1.7777,1.7754,1.776,1.7812,1.7739,1.7754,1.7699,1.7658,1.7713,1.768,1.7682,1.7696,1.7643,1.7764,1.7733,1.7665,1.7566,1.7724,1.778,1.7802,1.7489,1.7486,1.7483,1.7481,0,0,1.7979,1.791,1.7931,1.792,1.7878,1.7899,1.7947,1.7948,1.7963,1.7951,1.7989,1.8016,1.7952,1.7949,1.7894,1.7938,1.8082,1.7863,1.7861,1.7906,1.8214,1.8266,1.8294,1.8036,1.804,1.8043,1.8216,0,1.8153,1.8228,1.8156,1.8246,1.8271,1.8166,1.8208,1.8188,1.8151,1.8168,1.8127,1.8148,1.8061,1.8059,1.8097,1.8057,1.8143,1.8043,1.8072,1.8074,1.8082,1.8323,1.8378,1.8543,1.8237,1.8241,1.8243,0,1.8366,1.8361,1.8454,1.8406,1.8414,1.8452,1.8447,1.8464,1.844,1.841,1.8407,1.8339,1.8383,1.8286,1.8348,1.8281,1.8289,1.8271,1.8275,1.8276,1.8169,1.8331,1.8594,1.8619,1.8277,1.8274,1.8272,0,1.8564,1.8582,1.8639,1.8632,1.8578,1.8608,1.8587,1.8557,1.8562,1.8559,1.8561,1.8564,1.8566,1.857,1.8505,1.8441,1.8575,1.8473,1.8553,1.8555,1.8586,1.8585,1.8855,1.8591,1.8591,1.859,1.859,0,1.8766,1.8827,1.8727,1.8763,1.8828,1.8745,1.8813,1.8781,1.8756,1.8784,1.8695,1.8724,1.8636,1.8657,1.8607,1.8666,1.8667,1.8645,1.8631,1.8653,1.8656,1.8657,1.8645,1.8597,1.8595,1.8594,1.8593,0,1.8999,1.8935,1.899,1.8934,1.8921,1.8972,1.8925,1.8956,1.8912,1.895,1.8954,1.8886,1.8906,1.8841,1.8851,1.8817,1.8904,1.8871,1.8912,1.8902,1.8986,1.8979,1.9266,1.93,1.9015,1.9017,1.902,0,1.9133,1.9176,1.9125,1.9136,1.912,1.914,1.9144,1.9065,1.9073,1.9049,1.9084,1.9096,1.9101,1.9137,1.909,1.9097,1.9064,1.9164,1.9065,1.9086,1.9066,1.9065,1.9069,1.9185,1.9189,1.9192,1.9194,0,1.9376,1.9342,1.935,1.9348,1.9355,1.9351,1.934,1.9355,1.9269,1.9284,1.9302,1.9306,1.9315,1.9328,1.9325,1.9305,1.9237,1.9226,1.9245,1.9268,1.929,1.928,1.8969,1.922,1.9217,1.9215,1.9214,1.9213,1.9563,1.9597,1.9566,1.9579,1.9562,1.9554,1.958,1.9539,1.9552,1.9552,1.9504,1.9532,1.9508,1.9496,1.9483,1.9505,1.9459,1.9486,1.9493,1.9501,1.9516,1.9286,1.9504,1.9504,1.9503,1.9502,1.9502,0,1.9802,1.9776,1.9789,1.9775,1.9786,1.9718,1.9702,1.9717,1.9741,1.9723,1.973,1.9751,1.9763,1.9717,1.9724,1.975,1.9719,1.9755,1.9752,1.9749,1.9557,1.954,1.978,1.978,1.978,1.978,1.978,1.978,1.9927,1.9982,1.9944,1.9989,1.9963,1.9988,1.9985,1.9978,1.9963,1.999,1.9999,1.9968,1.9939,1.9943,1.9952,1.9938,1.9945,1.9992,1.9968,1.9789,1.9762,1.9736,1.972,1.9994,1.9994,2.0158,2.0159,2.0161]},{"header":{"parameterUnit":"m.s-1","parameterCategory":1,"la1":30.2991,"la2":30.254,"lo1":-89.0895,"lo2":-89.0444,"dy":0.0017,"dx":0.0017,"nx":28,"ny":28,"refTime":"2025-07-14T09:00:00:Z","depth":0,"parameterNumber":3,"parameterNumberName":"V-component_of_WINDS"},"data":[0,0,0,0,0,0,0,0,0,0,0,0,0,0,0,0,0,0,0,0,0,0,0,0,0,0,0,0,0,0,0,0,0,0,0,0,0,0,0,0,0,0,0,0,0,0,0,0,0,0,0,0,0,0,0,0,0,0,-0.2483,-0.2483,0,-0.2526,-0.2527,-0.2527,-0.2573,-0.2574,-0.2574,-0.2575,-0.2618,-0.2619,-0.2619,0,0,0,0,0,0,0,0,0,0,0,0,0,-0.2439,-0.2439,-0.2483,-0.2483,-0.2484,-0.2526,-0.2527,-0.2527,-0.2573,-0.2574,-0.2575,-0.2575,-0.2618,-0.2619,-0.262,0,0,0,0,0,0,0,0,0,0,0,0,0,-0.2468,-0.244,-0.2483,-0.2512,-0.2515,-0.2526,-0.2527,-0.2527,-0.2573,-0.2574,-0.2575,-0.2576,-0.2618,-0.2619,-0.262,-0.2605,0,0,-0.2622,-0.2623,0,0,0,0,0,0,0,0,-0.2466,-0.2469,-0.2507,-0.251,-0.2513,-0.2545,-0.2527,-0.2554,-0.2573,-0.2551,-0.2575,-0.2576,-0.2593,-0.2596,-0.2602,-0.2607,-0.2609,-0.2622,-0.2623,-0.2623,-0.2623,0,0,0,0,0,0,0,-0.2464,-0.2467,-0.25,-0.2507,-0.2511,-0.2522,-0.2528,-0.2532,-0.2566,-0.2553,-0.2556,-0.2561,-0.2595,-0.2601,-0.2603,-0.261,-0.2622,-0.2623,-0.2623,-0.2624,-0.2606,-0.2605,0,0,0,0,0,0,-0.2458,-0.2466,-0.2499,-0.2501,-0.2491,-0.2522,-0.2528,-0.2534,-0.2566,-0.2572,-0.256,-0.2563,-0.2599,-0.2602,-0.2605,-0.259,-0.2623,-0.2624,-0.2624,-0.2607,-0.2606,-0.2605,0,0,0,0,0,0,-0.2456,-0.246,-0.2497,-0.2484,-0.249,-0.2522,-0.2528,-0.2534,-0.254,-0.2571,-0.2578,-0.256,-0.26,-0.2604,-0.2605,-0.2593,-0.2624,-0.2625,-0.2608,-0.2606,-0.2605,-0.2561,0,0,0,0,0,0,-0.2455,-0.2459,-0.2454,-0.2484,-0.249,-0.2496,-0.2527,-0.2534,-0.2542,-0.2546,-0.2573,-0.2579,-0.2601,-0.2604,-0.2606,-0.2594,-0.2626,-0.2609,-0.2607,-0.2606,-0.2563,-0.2558,-0.2553,0,0,0,0,0,-0.2453,-0.244,-0.2454,-0.2457,-0.2485,-0.2495,-0.2499,-0.2525,-0.2541,-0.2536,-0.2556,-0.2578,-0.2594,-0.2603,-0.2606,-0.2595,-0.261,-0.2608,-0.2606,-0.2566,-0.2559,-0.2553,0,0,0,0,0,0,-0.2407,-0.2444,-0.246,-0.2456,-0.2472,-0.2503,-0.2497,-0.2517,-0.2529,-0.2533,-0.2565,-0.2571,-0.2568,-0.2582,-0.2592,-0.2583,-0.2605,-0.2603,-0.2574,-0.2568,-0.2563,-0.2559,-0.2626,0,0,0,0,0,-0.2397,-0.2402,-0.2434,-0.2427,-0.2435,-0.2464,-0.247,-0.2489,-0.2507,-0.2514,-0.2534,-0.2551,-0.256,-0.2564,-0.2574,-0.2566,-0.2573,-0.256,-0.2555,-0.255,-0.2548,-0.2545,-0.2539,-0.2597,-0.2597,-0.2597,0,0,-0.2374,-0.2395,-0.2397,-0.2419,-0.2433,-0.2438,-0.247,-0.2474,-0.2477,-0.2515,-0.2517,-0.2532,-0.2553,-0.2549,-0.2548,-0.256,-0.2534,-0.2548,-0.2544,-0.2544,-0.2542,-0.2536,-0.2531,-0.2596,-0.2596,-0.2596,0,0,-0.2337,-0.2353,-0.2349,-0.2364,-0.2386,-0.2406,-0.2405,-0.2433,-0.2445,-0.2448,-0.2476,-0.2481,-0.2496,-0.2509,-0.2518,-0.2486,-0.2507,-0.2489,-0.2461,-0.2458,-0.2453,-0.2449,-0.2438,-0.2433,-0.2487,-0.2486,-0.2486,0,-0.2306,-0.2315,-0.2345,-0.2347,-0.2356,-0.239,-0.2387,-0.2399,-0.2423,-0.2428,-0.2442,-0.2461,-0.2477,-0.2477,-0.2469,-0.2475,-0.2475,-0.2485,-0.2452,-0.2448,-0.2445,-0.2434,-0.2429,-0.2484,-0.2484,-0.2485,-0.2485,0,-0.2276,-0.2282,-0.2276,-0.2299,-0.2307,-0.2306,-0.2336,-0.2341,-0.236,-0.2378,-0.2381,-0.2402,-0.2416,-0.2418,-0.2436,-0.2421,-0.2427,-0.2446,-0.2469,-0.2436,-0.2427,-0.2423,-0.2481,-0.2482,-0.2482,-0.2483,0,0,-0.2209,-0.225,-0.2247,-0.2258,-0.2286,-0.229,-0.2291,-0.2306,-0.2309,-0.2325,-0.2326,-0.2338,-0.2356,-0.2366,-0.2386,-0.2383,-0.2356,-0.2402,-0.2403,-0.2392,-0.234,-0.2325,-0.232,-0.237,-0.237,-0.2369,-0.2338,0,-0.2176,-0.218,-0.2207,-0.2203,-0.2208,-0.2242,-0.2243,-0.2259,-0.2277,-0.2284,-0.2304,-0.2312,-0.2334,-0.2341,-0.2339,-0.2359,-0.2346,-0.2362,-0.2371,-0.2371,-0.2364,-0.2315,-0.2299,-0.2268,-0.2334,-0.2333,-0.2333,0,-0.2137,-0.2151,-0.2147,-0.2175,-0.2178,-0.2179,-0.2195,-0.2201,-0.2221,-0.2235,-0.2246,-0.2269,-0.2272,-0.2294,-0.2298,-0.2309,-0.2314,-0.2325,-0.2324,-0.2325,-0.2349,-0.2313,-0.2259,-0.2254,-0.2327,-0.2328,-0.2328,0,-0.2087,-0.2105,-0.2106,-0.2114,-0.2147,-0.2146,-0.216,-0.2181,-0.2188,-0.2203,-0.2208,-0.2222,-0.2229,-0.2239,-0.2266,-0.228,-0.2267,-0.2291,-0.2277,-0.2276,-0.2272,-0.2272,-0.2217,-0.2277,-0.2277,-0.2277,-0.2277,0,-0.2046,-0.2043,-0.2084,-0.2084,-0.2081,-0.2113,-0.2108,-0.2125,-0.2144,-0.2148,-0.2178,-0.2181,-0.2216,-0.2223,-0.2244,-0.2244,-0.2247,-0.2257,-0.2263,-0.2254,-0.2252,-0.2257,-0.226,-0.2276,-0.2276,-0.2276,-0.2277,0,-0.199,-0.2018,-0.202,-0.2052,-0.2059,-0.2056,-0.2083,-0.2084,-0.2104,-0.2108,-0.2111,-0.2142,-0.2152,-0.218,-0.2196,-0.221,-0.2204,-0.2215,-0.2197,-0.22,-0.2185,-0.2185,-0.213,-0.2124,-0.2188,-0.2188,-0.2187,0,-0.1962,-0.196,-0.1991,-0.1996,-0.2009,-0.2016,-0.2024,-0.2055,-0.2062,-0.2086,-0.2084,-0.2096,-0.2107,-0.2121,-0.2145,-0.2158,-0.2169,-0.2149,-0.2171,-0.2162,-0.2168,-0.2167,-0.2167,-0.2143,-0.2143,-0.2142,-0.2141,0,-0.1908,-0.1922,-0.1932,-0.1947,-0.1956,-0.1969,-0.1985,-0.1987,-0.2022,-0.2028,-0.2039,-0.2048,-0.2065,-0.2077,-0.2094,-0.2108,-0.213,-0.2134,-0.2132,-0.2122,-0.2112,-0.2117,-0.2183,-0.2135,-0.2136,-0.2136,-0.2137,-0.2137,-0.1864,-0.1864,-0.1886,-0.1897,-0.1912,-0.1925,-0.1928,-0.1949,-0.1958,-0.1975,-0.1993,-0.2002,-0.2023,-0.2048,-0.206,-0.2067,-0.2079,-0.2075,-0.2074,-0.2072,-0.2068,-0.2112,-0.207,-0.2071,-0.2071,-0.2071,-0.2071,0,-0.1811,-0.1828,-0.1837,-0.1858,-0.1866,-0.1888,-0.1906,-0.1911,-0.1918,-0.1936,-0.1947,-0.1959,-0.197,-0.1996,-0.201,-0.201,-0.2021,-0.2013,-0.2013,-0.2015,-0.2057,-0.2058,-0.2004,-0.2004,-0.2004,-0.2004,-0.2004,-0.2004,-0.1785,-0.1785,-0.1802,-0.1811,-0.1827,-0.1836,-0.1844,-0.1857,-0.1872,-0.1884,-0.1894,-0.1911,-0.1931,-0.1947,-0.1959,-0.1966,-0.1969,-0.1958,-0.1968,-0.2006,-0.2012,-0.2018,-0.2019,-0.1958,-0.1958,-0.1926,-0.1926,-0.1925]}]]